Wind_Speed
23 23 23 22 22 21 22 22 22 22 22 22 21 21 22 22 21 22 22 22 22 23 22 23 23 24 25 25 24 24 24 24 25 26 26 26 27 27 26 27 27 27 28
24 23 22 22 21 21 21 21 21 21 21 21 21 21 21 21 21 21 21 22 22 22 22 22 23 23 23 23 24 24 24 24 24 24 25 26 26 26 26 26 26 26 28
24 23 22 21 21 21 21 21 20 20 21 20 20 20 20 20 20 20 19 19 20 21 21 21 21 23 23 23 23 23 23 23 24 24 24 24 24 25 25 26 26 27 28
24 23 22 22 22 21 21 21 20 21 21 20 19 19 19 19 19 18 18 18 18 19 20 20 21 21 22 22 22 23 23 23 23 23 23 23 23 24 25 26 27 27 27
23 22 22 22 21 21 21 22 21 21 21 20 19 18 18 18 19 18 18 18 19 20 20 21 20 20 20 21 22 23 23 23 23 23 23 23 23 24 25 26 26 26 26
22 21 21 21 21 22 22 22 22 21 20 20 18 18 18 18 19 19 19 19 19 19 20 19 20 20 20 21 21 21 21 22 23 23 22 23 23 24 24 24 25 26 27
21 21 20 20 20 22 22 22 20 20 19 19 18 18 18 18 19 19 19 18 18 19 19 20 20 20 21 21 21 21 21 21 22 21 21 21 22 22 23 24 25 25 26
22 22 21 21 22 23 22 21 20 19 19 18 18 17 18 18 18 18 19 18 18 19 20 19 19 19 20 20 20 20 20 20 20 20 20 21 22 22 22 22 23 24 24
23 22 22 22 23 22 22 21 20 19 18 19 18 18 18 18 18 18 18 18 18 18 18 18 18 19 20 19 19 18 18 19 19 20 20 20 21 21 21 22 22 23 23
23 23 22 23 22 22 21 21 20 19 18 18 18 18 17 17 17 17 17 17 16 17 17 17 17 17 18 19 20 19 18 18 19 19 20 20 20 21 21 21 22 23 23
23 23 23 23 23 22 21 20 19 18 17 17 17 16 16 16 16 15 16 16 16 16 16 17 17 16 17 18 18 18 18 19 19 19 20 20 20 21 22 22 22 23 23
23 23 23 22 22 21 20 19 18 17 15 16 15 15 15 15 15 15 15 16 16 15 15 16 17 17 17 17 18 18 19 19 19 19 20 20 21 21 22 22 23 23 23
23 23 22 21 21 20 19 18 17 16 15 15 16 16 16 15 15 15 14 14 14 15 15 15 16 16 17 18 18 19 19 19 19 20 20 20 21 22 22 23 23 23 23
23 23 23 22 21 19 18 18 18 17 16 17 17 17 16 15 14 14 13 14 14 14 14 15 15 15 15 16 17 18 19 20 20 20 20 20 21 20 21 21 21 22 22
24 24 23 22 20 19 18 19 18 17 17 17 17 16 15 14 13 13 13 13 13 13 13 13 13 14 15 15 16 18 19 19 19 19 19 19 19 19 19 20 20 20 20
25 24 23 21 19 18 19 18 18 17 17 16 15 15 14 14 13 13 13 13 12 12 13 13 13 14 14 15 15 16 16 17 18 18 17 18 18 18 19 19 19 19 19
24 22 21 20 19 18 18 18 16 16 15 15 15 14 14 13 12 12 12 11 11 12 12 12 12 13 14 14 14 15 15 16 16 16 16 17 17 17 18 19 19 19 19
23 22 21 19 18 18 16 16 16 15 15 15 15 14 13 13 12 11 11 11 11 11 11 11 12 12 13 14 14 14 15 15 15 16 16 16 17 17 18 19 19 19 19
22 21 19 17 16 16 15 15 15 15 15 14 14 14 14 13 12 11 11 11 11 11 11 12 12 12 13 13 13 13 14 14 14 15 16 17 17 18 19 19 20 19 19
21 19 17 17 16 15 15 15 15 15 15 15 15 14 14 14 12 12 12 12 11 11 11 11 12 12 12 12 12 12 12 13 13 14 15 16 17 18 19 19 19 18 18
20 19 17 17 15 15 15 16 16 15 15 14 15 15 15 14 13 13 13 12 12 11 12 12 12 12 11 11 11 12 13 13 14 14 15 15 16 17 18 18 17 16 16
19 18 18 17 16 16 16 16 16 15 15 15 15 15 15 14 14 14 13 12 12 12 12 12 12 11 11 12 12 12 12 13 14 14 14 15 15 16 16 17 16 15 14
20 19 18 17 16 16 16 16 16 16 16 16 16 16 16 15 15 14 14 13 13 12 13 13 12 11 12 12 12 12 12 13 14 14 14 14 14 15 15 15 14 14 13
19 18 18 18 17 17 16 16 16 16 16 16 16 16 16 16 15 14 14 13 13 13 13 13 12 12 12 12 13 13 13 13 14 14 14 13 13 14 14 13 13 13 13
18 17 17 17 17 17 17 16 16 16 16 16 16 16 16 15 14 14 13 12 12 12 11 11 12 12 13 13 13 13 13 13 13 13 13 13 13 13 13 13 12 12 12
17 17 17 16 16 16 16 16 16 15 15 15 15 15 14 14 13 12 12 11 11 11 11 11 12 12 12 12 12 12 12 12 12 12 12 12 12 12 11 12 11 11 11
Wind_Direction
310 310 310 310 310 308 307 304 303 299 297 293 290 285 284 283 282 278 274 273 275 274 270 268 266 263 262 263 264 263 263 263 260 259 261 264 265 266 267 267 267 265 262
311 310 311 312 310 309 307 305 305 302 298 295 294 289 285 282 279 276 276 275 274 273 270 268 264 261 262 262 263 262 262 264 262 259 261 264 266 267 267 266 265 265 265
313 311 311 310 308 308 308 306 305 304 300 296 296 291 286 283 278 276 275 274 272 271 270 267 263 261 262 264 263 262 262 263 264 263 263 264 265 267 266 266 266 267 267
315 312 310 308 308 309 309 307 306 305 302 299 296 294 290 285 278 274 273 271 269 269 270 268 264 263 263 263 263 262 262 264 264 264 266 266 266 267 267 267 268 270 270
315 312 310 309 308 310 310 308 307 305 303 300 296 291 287 283 277 273 270 269 270 270 269 270 267 264 263 264 264 264 263 262 263 264 266 267 268 268 269 269 269 269 269
314 312 310 309 309 312 312 310 309 306 303 302 297 290 285 282 278 276 273 272 271 270 270 269 265 262 263 263 264 264 262 261 262 264 266 267 268 270 272 272 272 271 269
315 313 311 312 314 315 315 313 310 306 302 300 295 289 288 287 284 282 277 275 273 271 270 268 265 263 263 261 262 264 263 262 263 265 266 268 269 270 272 273 272 273 273
316 314 312 312 314 316 315 312 308 305 300 301 299 293 291 289 286 284 278 275 276 273 270 268 266 265 264 263 262 264 262 262 264 266 268 269 271 272 273 273 272 273 275
316 314 314 315 317 316 313 310 309 307 303 302 302 299 296 292 287 284 281 277 275 273 270 266 267 265 265 263 264 263 262 262 264 266 269 271 271 273 274 273 274 277 278
315 314 313 315 317 317 315 313 311 310 308 303 302 301 299 296 292 287 283 278 277 274 271 268 269 268 265 265 264 262 263 265 268 268 269 270 271 273 274 277 279 281 282
316 314 314 315 316 316 316 315 312 311 310 306 304 302 300 299 296 292 287 283 281 279 275 271 267 266 268 267 265 263 264 267 272 272 269 270 272 274 276 278 280 282 282
316 315 315 314 315 314 314 313 311 310 309 310 308 306 304 302 299 295 291 287 283 279 277 273 270 267 268 267 264 264 267 269 270 270 270 270 272 275 277 279 282 283 284
317 317 316 314 314 313 313 312 311 310 310 311 309 308 305 301 295 293 292 291 286 283 283 281 276 270 267 269 268 265 266 268 269 271 273 273 273 274 275 278 281 284 285
316 316 315 314 312 310 309 310 311 309 309 309 309 307 305 301 298 295 293 290 287 286 286 285 281 276 273 271 269 268 267 269 269 271 274 274 276 277 279 281 285 286 285
315 314 313 313 309 307 307 308 308 307 307 308 309 307 305 303 299 297 292 291 291 292 293 293 290 285 282 279 274 273 272 270 271 272 274 276 277 279 281 284 287 289 289
314 313 313 312 310 308 308 308 307 308 309 310 312 311 308 303 300 298 295 295 295 295 294 295 293 287 286 283 278 276 273 271 273 273 272 275 277 279 283 286 288 290 291
313 312 311 310 310 310 310 309 308 311 311 316 318 315 312 313 309 304 302 299 299 298 294 296 295 291 289 287 282 278 274 275 275 276 275 275 277 278 280 284 287 289 290
311 310 309 309 309 309 309 310 312 312 314 317 317 318 318 317 313 307 303 300 300 300 298 299 298 294 291 288 282 279 276 276 278 280 278 278 278 280 282 285 288 288 288
309 309 308 307 306 306 308 310 312 312 314 317 316 317 317 315 310 306 304 302 300 301 302 302 301 298 294 289 285 282 278 278 281 282 283 282 281 282 284 285 288 287 287
305 305 304 302 302 302 305 306 308 310 311 313 313 312 314 312 308 306 306 303 300 299 301 302 304 305 300 293 290 287 283 281 283 285 285 285 285 287 288 289 290 288 288
301 300 299 298 298 300 302 303 306 307 306 307 309 309 308 307 305 303 304 302 298 297 298 298 303 307 305 300 296 292 288 285 287 290 289 288 289 292 294 294 294 290 290
297 297 295 294 294 296 300 302 303 305 305 303 302 305 307 306 304 302 301 300 297 296 298 299 302 304 301 300 300 299 295 292 291 294 293 292 292 294 295 296 297 293 289
295 295 293 293 293 293 296 299 301 302 302 301 302 303 304 304 302 300 295 293 292 290 291 295 298 300 299 299 300 300 298 296 295 295 295 295 297 298 296 297 296 294 293
292 290 290 291 292 291 292 295 297 299 300 301 302 302 304 302 300 298 295 291 290 290 292 292 293 295 296 298 300 301 297 296 297 297 298 299 300 301 300 299 298 294 293
290 289 288 290 290 291 292 293 294 297 299 302 302 303 304 303 300 295 293 291 290 291 294 294 295 296 296 297 296 297 297 299 299 300 301 302 302 301 300 298 297 295 293
291 290 287 287 288 290 291 291 293 296 299 301 301 303 306 306 303 296 291 290 291 292 295 296 295 296 298 299 297 295 299 303 304 303 305 306 306 303 300 300 298 297 293
Height
5765 5761 5757 5754 5751 5747 5744 5741 5739 5736 5733 5731 5730 5728 5727 5727 5726 5725 5725 5725 5725 5725 5725 5725 5726 5727 5728 5728 5729 5730 5731 5732 5733 5734 5734 5735 5735 5735 5736 5736 5736 5736 5737
5759 5756 5752 5749 5746 5742 5739 5736 5733 5730 5728 5725 5723 5722 5721 5720 5720 5719 5719 5718 5719 5718 5719 5719 5719 5720 5721 5722 5722 5723 5724 5725 5726 5726 5727 5727 5728 5728 5728 5728 5728 5728 5728
5754 5750 5747 5744 5740 5737 5734 5731 5728 5725 5723 5720 5718 5716 5715 5714 5713 5713 5712 5712 5712 5712 5712 5712 5712 5713 5714 5715 5715 5716 5717 5718 5719 5719 5720 5720 5720 5720 5720 5720 5720 5720 5720
5749 5745 5742 5738 5735 5732 5729 5726 5723 5720 5718 5715 5713 5711 5709 5708 5707 5707 5706 5706 5706 5706 5706 5706 5706 5706 5707 5708 5708 5709 5710 5711 5711 5712 5712 5712 5712 5712 5712 5713 5712 5712 5712
5743 5740 5737 5733 5730 5727 5724 5721 5718 5715 5713 5710 5708 5706 5704 5703 5702 5701 5700 5700 5700 5700 5700 5700 5700 5700 5700 5701 5701 5702 5703 5704 5704 5705 5705 5705 5705 5705 5705 5705 5705 5704 5704
5739 5735 5732 5729 5726 5723 5719 5716 5713 5710 5707 5705 5703 5701 5699 5697 5696 5695 5694 5694 5694 5694 5694 5694 5694 5694 5694 5694 5694 5695 5696 5697 5698 5698 5698 5698 5698 5698 5698 5697 5697 5696 5696
5735 5731 5728 5725 5722 5718 5715 5711 5708 5705 5702 5700 5698 5696 5694 5692 5691 5689 5688 5688 5688 5688 5688 5688 5687 5687 5687 5688 5688 5688 5689 5690 5691 5691 5692 5692 5691 5691 5691 5690 5689 5689 5688
5731 5727 5724 5721 5717 5714 5710 5707 5704 5701 5698 5695 5693 5691 5689 5687 5686 5684 5683 5682 5682 5682 5682 5681 5681 5681 5681 5681 5682 5682 5683 5684 5685 5685 5685 5685 5685 5684 5683 5683 5682 5681 5681
5727 5723 5720 5716 5713 5709 5706 5702 5699 5696 5693 5690 5688 5685 5683 5682 5680 5679 5678 5677 5676 5676 5675 5675 5675 5675 5675 5675 5676 5676 5677 5678 5678 5678 5679 5678 5678 5677 5676 5676 5675 5674 5673
5723 5719 5716 5712 5708 5705 5701 5697 5694 5691 5688 5686 5683 5681 5678 5677 5675 5674 5672 5671 5671 5670 5670 5669 5669 5669 5669 5669 5669 5670 5671 5672 5672 5672 5672 5671 5671 5670 5669 5669 5668 5667 5665
5718 5715 5711 5707 5703 5700 5696 5693 5689 5686 5684 5681 5679 5676 5674 5672 5670 5668 5667 5666 5665 5664 5664 5664 5663 5663 5663 5663 5663 5664 5665 5665 5665 5665 5665 5665 5664 5663 5663 5662 5661 5659 5657
5714 5710 5706 5703 5699 5695 5692 5688 5685 5682 5680 5677 5674 5672 5669 5667 5665 5664 5662 5661 5660 5659 5659 5658 5658 5658 5657 5657 5657 5658 5659 5659 5659 5658 5658 5658 5657 5656 5656 5655 5653 5651 5649
5709 5705 5701 5698 5694 5691 5687 5684 5681 5678 5676 5673 5670 5668 5665 5663 5661 5659 5658 5657 5655 5654 5654 5653 5652 5652 5652 5652 5652 5652 5652 5653 5653 5652 5652 5651 5650 5649 5648 5647 5646 5644 5641
5704 5700 5696 5693 5689 5686 5683 5680 5677 5674 5671 5668 5666 5663 5660 5658 5656 5654 5653 5652 5651 5650 5649 5648 5647 5647 5646 5646 5646 5646 5646 5647 5646 5646 5645 5644 5643 5642 5641 5640 5638 5636 5634
5699 5695 5691 5688 5684 5682 5679 5676 5673 5670 5667 5664 5661 5658 5656 5654 5652 5650 5649 5648 5646 5645 5644 5643 5642 5642 5641 5640 5640 5640 5640 5640 5640 5639 5639 5638 5637 5636 5634 5633 5631 5629 5627
5693 5689 5686 5683 5680 5677 5675 5672 5668 5666 5662 5660 5657 5654 5652 5650 5648 5646 5645 5643 5642 5640 5639 5638 5637 5636 5636 5635 5635 5634 5634 5634 5634 5633 5632 5632 5631 5630 5628 5627 5625 5623 5620
5688 5684 5681 5678 5675 5673 5670 5667 5664 5661 5658 5656 5653 5651 5648 5646 5644 5642 5641 5639 5638 5636 5635 5634 5633 5632 5631 5630 5630 5629 5629 5628 5628 5627 5627 5626 5625 5624 5622 5620 5618 5616 5614
5682 5679 5676 5674 5671 5668 5665 5663 5660 5657 5655 5652 5650 5647 5645 5643 5641 5639 5637 5636 5634 5632 5631 5630 5629 5628 5626 5625 5625 5624 5623 5623 5622 5622 5621 5620 5619 5618 5616 5614 5611 5610 5608
5677 5674 5671 5669 5667 5664 5661 5659 5656 5654 5651 5649 5646 5644 5642 5639 5638 5636 5633 5632 5630 5629 5628 5626 5625 5623 5622 5621 5620 5619 5618 5618 5617 5616 5616 5614 5613 5612 5610 5608 5605 5603 5601
5672 5669 5666 5664 5662 5660 5657 5655 5653 5650 5647 5645 5643 5640 5638 5636 5634 5632 5630 5628 5627 5625 5624 5623 5621 5619 5618 5616 5615 5614 5614 5613 5612 5611 5610 5609 5607 5606 5604 5602 5600 5598 5596
5666 5663 5661 5659 5657 5655 5653 5651 5648 5646 5643 5641 5639 5636 5634 5631 5630 5628 5626 5624 5623 5622 5620 5619 5617 5616 5614 5612 5611 5610 5609 5608 5607 5606 5605 5603 5602 5600 5598 5596 5594 5592 5591
5659 5658 5656 5654 5652 5650 5648 5646 5644 5641 5639 5637 5634 5632 5629 5627 5625 5624 5622 5621 5619 5617 5616 5615 5613 5612 5611 5609 5608 5606 5605 5604 5603 5602 5600 5598 5596 5595 5593 5591 5589 5588 5586
5653 5651 5650 5648 5646 5645 5643 5641 5639 5636 5634 5632 5629 5627 5625 5623 5621 5619 5617 5616 5614 5613 5612 5611 5609 5608 5607 5605 5604 5602 5601 5600 5598 5597 5595 5594 5592 5590 5588 5586 5585 5583 5582
5646 5645 5643 5642 5641 5639 5637 5635 5633 5631 5629 5627 5624 5622 5620 5617 5615 5613 5612 5611 5610 5608 5607 5606 5605 5604 5603 5601 5600 5598 5597 5595 5594 5592 5591 5589 5587 5585 5584 5582 5580 5579 5578
5639 5638 5637 5636 5634 5633 5631 5630 5628 5626 5624 5621 5619 5617 5614 5612 5610 5608 5606 5606 5605 5604 5603 5602 5601 5600 5599 5597 5596 5595 5593 5592 5590 5588 5586 5585 5583 5581 5580 5578 5577 5575 5574
5633 5631 5631 5629 5628 5627 5625 5624 5622 5621 5619 5616 5614 5612 5609 5607 5605 5603 5602 5601 5600 5599 5599 5598 5597 5596 5595 5593 5592 5591 5589 5588 5586 5585 5583 5581 5580 5578 5576 5574 5573 5572 5571